�������l�o���
Date,Time,MP-1(��Sv/h),MP-2(��Sv/h),MP-3(��Sv/h),MP-4(��Sv/h),MP-5(��Sv/h),MP-6(��Sv/h),MP-7(��Sv/h),MP-8(��Sv/h),����,����(m/s),���J
2023/11/07,00:00,0.531,0.802,0.499,1.014,0.731,0.320,0.574,0.533,��,10.2,��
2023/11/07,00:10,0.531,0.802,0.497,1.016,0.729,0.320,0.575,0.533,��,9.4,��
2023/11/07,00:20,0.531,0.803,0.497,1.014,0.729,0.320,0.574,0.533,��,8.7,��
2023/11/07,00:30,0.531,0.802,0.497,1.015,0.730,0.319,0.574,0.532,��,9.4,��
2023/11/07,00:40,0.531,0.804,0.500,1.014,0.729,0.320,0.575,0.535,��,8.8,��
2023/11/07,00:50,0.530,0.803,0.496,1.013,0.730,0.321,0.576,0.533,��,7.7,��
2023/11/07,01:00,0.531,0.801,0.495,1.015,0.729,0.321,0.575,0.533,��,8.7,��
2023/11/07,01:10,0.531,0.802,0.495,1.014,0.731,0.320,0.576,0.533,��,8.6,��
2023/11/07,01:20,0.530,0.802,0.499,1.014,0.730,0.320,0.576,0.533,��,8.2,��
2023/11/07,01:30,0.531,0.801,0.498,1.012,0.731,0.320,0.575,0.533,��,11.6,��
2023/11/07,01:40,0.531,0.803,0.497,1.014,0.731,0.320,0.575,0.532,��,9.8,�L
2023/11/07,01:50,0.529,0.803,0.499,1.014,0.731,0.321,0.576,0.532,��쐼,8.6,�L
2023/11/07,02:00,0.530,0.804,0.499,1.014,0.731,0.320,0.576,0.532,��,9.5,��
2023/11/07,02:10,0.530,0.804,0.498,1.013,0.730,0.318,0.575,0.533,��,8.4,��
2023/11/07,02:20,0.530,0.800,0.500,1.013,0.730,0.319,0.574,0.533,��,8.3,�L
2023/11/07,02:30,0.529,0.803,0.498,1.014,0.733,0.320,0.575,0.533,��,11.4,��
2023/11/07,02:40,0.531,0.803,0.498,1.014,0.731,0.320,0.574,0.532,��,9.1,�L
2023/11/07,02:50,0.530,0.803,0.499,1.015,0.731,0.321,0.575,0.534,��,8.7,��
2023/11/07,03:00,0.530,0.803,0.498,1.015,0.731,0.321,0.574,0.534,��,11.9,��
2023/11/07,03:10,0.531,0.800,0.498,1.013,0.731,0.320,0.575,0.533,��,9.6,��
2023/11/07,03:20,0.531,0.802,0.498,1.014,0.732,0.320,0.574,0.534,��,12.4,��
2023/11/07,03:30,0.532,0.804,0.499,1.015,0.733,0.320,0.576,0.535,��,10.5,��
2023/11/07,03:40,0.532,0.802,0.498,1.013,0.732,0.320,0.575,0.534,��,12.7,��
2023/11/07,03:50,0.533,0.802,0.500,1.014,0.730,0.321,0.576,0.533,��,11.6,��
2023/11/07,04:00,0.530,0.802,0.498,1.013,0.731,0.321,0.574,0.535,��,14.9,�L
2023/11/07,04:10,0.530,0.804,0.496,1.012,0.732,0.321,0.575,0.533,��,13.5,�L
2023/11/07,04:20,0.532,0.803,0.498,1.014,0.732,0.320,0.575,0.535,��,15.0,�L
2023/11/07,04:30,0.531,0.802,0.499,1.014,0.730,0.321,0.575,0.535,��쓌,12.4,�L
2023/11/07,04:40,0.530,0.802,0.498,1.014,0.731,0.321,0.575,0.535,��,13.1,�L
2023/11/07,04:50,0.531,0.800,0.499,1.013,0.730,0.321,0.576,0.535,��,12.2,�L
2023/11/07,05:00,0.530,0.798,0.497,1.013,0.728,0.320,0.574,0.532,��,13.6,�L
2023/11/07,05:10,0.531,0.799,0.497,1.012,0.727,0.320,0.575,0.532,��,14.1,�L
2023/11/07,05:20,0.531,0.799,0.496,1.013,0.726,0.320,0.573,0.532,��,13.8,�L
2023/11/07,05:30,0.529,0.798,0.496,1.011,0.728,0.320,0.574,0.533,��,11.6,�L
2023/11/07,05:40,0.529,0.797,0.496,1.011,0.727,0.320,0.573,0.532,��,14.6,�L
2023/11/07,05:50,0.530,0.797,0.495,1.014,0.727,0.321,0.575,0.533,��,13.5,�L
2023/11/07,06:00,0.530,0.797,0.496,1.010,0.727,0.320,0.574,0.531,��,13.3,�L
2023/11/07,06:10,0.530,0.797,0.497,1.014,0.725,0.321,0.573,0.531,��,12.7,�L
2023/11/07,06:20,0.531,0.799,0.496,1.012,0.727,0.320,0.576,0.532,��,12.7,�L
2023/11/07,06:30,0.529,0.797,0.496,1.011,0.724,0.319,0.575,0.532,��,14.4,�L
2023/11/07,06:40,0.530,0.798,0.497,1.012,0.726,0.320,0.576,0.533,��,11.1,�L
2023/11/07,06:50,0.529,0.797,0.495,1.012,0.724,0.319,0.574,0.533,��,12.4,�L
2023/11/07,07:00,0.531,0.795,0.496,1.010,0.725,0.319,0.573,0.533,��쐼,11.8,�L
2023/11/07,07:10,0.530,0.796,0.496,1.011,0.725,0.321,0.574,0.532,��,11.3,�L
2023/11/07,07:20,0.530,0.797,0.497,1.009,0.723,0.319,0.573,0.532,��,9.7,�L
2023/11/07,07:30,0.529,0.794,0.492,1.006,0.721,0.320,0.572,0.530,��쐼,5.0,�L
2023/11/07,07:40,0.525,0.786,0.491,1.006,0.718,0.319,0.572,0.530,��쐼,2.2,�L
2023/11/07,07:50,0.524,0.784,0.490,1.004,0.718,0.318,0.571,0.530,���k��,4.6,�L
2023/11/07,08:00,0.507,0.762,0.480,0.981,0.695,0.315,0.565,0.526,�쐼,4.2,�L
2023/11/07,08:10,0.507,0.757,0.480,0.966,0.688,0.315,0.561,0.524,��,8.2,�L
2023/11/07,08:20,0.507,0.756,0.481,0.961,0.689,0.312,0.558,0.521,��,6.6,�L
2023/11/07,08:30,0.507,0.757,0.482,0.959,0.690,0.313,0.559,0.522,���쐼,4.7,�L
2023/11/07,08:40,0.510,0.760,0.482,0.962,0.691,0.315,0.560,0.522,��,5.8,�L
2023/11/07,08:50,0.512,0.761,0.484,0.963,0.694,0.315,0.561,0.522,���쐼,4.2,�L
2023/11/07,09:00,0.510,0.758,0.482,0.962,0.693,0.314,0.558,0.522,���k��,5.7,�L
2023/11/07,09:10,0.510,0.756,0.483,0.963,0.690,0.315,0.559,0.520,���k��,6.1,�L
2023/11/07,09:20,0.510,0.755,0.482,0.960,0.690,0.315,0.558,0.523,���k��,10.9,�L
2023/11/07,09:30,0.507,0.752,0.480,0.958,0.686,0.315,0.558,0.522,���k��,6.9,�L
2023/11/07,09:40,0.505,0.747,0.480,0.952,0.679,0.314,0.557,0.518,���k��,5.6,�L
2023/11/07,09:50,0.509,0.750,0.482,0.953,0.682,0.315,0.557,0.521,�k��,3.4,�L
2023/11/07,10:00,0.511,0.757,0.484,0.957,0.684,0.317,0.558,0.521,�k��,2.3,�L
2023/11/07,10:10,0.515,0.758,0.485,0.960,0.690,0.318,0.559,0.524,�k�k��,3.7,��
2023/11/07,10:20,0.514,0.760,0.484,0.964,0.691,0.318,0.559,0.523,�k��,5.9,��
2023/11/07,10:30,0.515,0.760,0.484,0.963,0.689,0.316,0.560,0.524,�k��,3.7,��
2023/11/07,10:40,0.515,0.761,0.484,0.965,0.691,0.316,0.559,0.523,�k,2.5,��
2023/11/07,10:50,0.515,0.761,0.481,0.964,0.690,0.315,0.561,0.523,�k�k��,3.7,��
2023/11/07,11:00,0.513,0.762,0.482,0.963,0.691,0.313,0.561,0.523,�k��,3.8,��
2023/11/07,11:10,0.513,0.761,0.480,0.963,0.689,0.315,0.560,0.523,���k��,7.0,�L
2023/11/07,11:20,0.510,0.762,0.482,0.962,0.690,0.314,0.560,0.523,���k��,7.5,�L
2023/11/07,11:30,0.510,0.761,0.482,0.962,0.689,0.314,0.560,0.523,���k��,8.4,�L
2023/11/07,11:40,0.510,0.759,0.480,0.962,0.689,0.314,0.559,0.522,���k��,6.1,�L
2023/11/07,11:50,0.508,0.761,0.481,0.964,0.690,0.312,0.561,0.522,���k��,7.7,�L
2023/11/07,12:00,0.508,0.762,0.479,0.963,0.688,0.313,0.561,0.522,���k��,3.0,�L
2023/11/07,12:10,0.508,0.762,0.480,0.961,0.690,0.312,0.560,0.522,���k��,4.5,�L
2023/11/07,12:20,0.510,0.763,0.480,0.962,0.690,0.313,0.562,0.523,�k��,4.5,��
2023/11/07,12:30,0.510,0.763,0.480,0.966,0.689,0.312,0.560,0.522,���k��,3.8,��
2023/11/07,12:40,0.509,0.763,0.479,0.963,0.692,0.311,0.561,0.523,��,1.9,��
2023/11/07,12:50,0.509,0.763,0.479,0.964,0.691,0.311,0.561,0.523,���k��,2.3,��
2023/11/07,13:00,0.508,0.765,0.480,0.962,0.693,0.313,0.562,0.524,���k��,4.5,��
2023/11/07,13:10,0.507,0.762,0.480,0.964,0.693,0.312,0.562,0.524,���k��,4.8,��
2023/11/07,13:20,0.508,0.762,0.479,0.965,0.691,0.310,0.562,0.524,���k��,5.5,��
2023/11/07,13:30,0.508,0.761,0.479,0.963,0.690,0.311,0.561,0.522,���k��,5.0,��
2023/11/07,13:40,0.508,0.760,0.476,0.965,0.690,0.311,0.561,0.523,���k��,4.1,��
2023/11/07,13:50,0.506,0.761,0.477,0.965,0.691,0.311,0.561,0.524,���k��,2.8,��
2023/11/07,14:00,0.508,0.760,0.477,0.965,0.689,0.310,0.561,0.522,���k��,4.5,��
2023/11/07,14:10,0.507,0.760,0.479,0.965,0.694,0.311,0.560,0.522,���k��,3.8,��
2023/11/07,14:20,0.507,0.761,0.479,0.966,0.692,0.311,0.561,0.523,�k��,2.0,��
2023/11/07,14:30,0.508,0.763,0.480,0.965,0.693,0.311,0.560,0.523,�k�k��,0.8,��
2023/11/07,14:40,0.509,0.763,0.480,0.965,0.693,0.313,0.563,0.522,��,1.4,��
2023/11/07,14:50,0.510,0.764,0.479,0.966,0.692,0.312,0.562,0.524,���k��,1.7,��
2023/11/07,15:00,0.508,0.763,0.477,0.962,0.692,0.311,0.561,0.523,�k��,1.2,��
2023/11/07,15:10,0.510,0.764,0.478,0.966,0.695,0.310,0.563,0.523,���k��,2.6,��
2023/11/07,15:20,0.509,0.765,0.479,0.962,0.694,0.311,0.562,0.523,��,3.0,��
2023/11/07,15:30,0.507,0.762,0.479,0.963,0.693,0.312,0.561,0.524,���k��,2.6,��
2023/11/07,15:40,0.510,0.763,0.478,0.962,0.694,0.310,0.562,0.524,���k��,2.8,��
2023/11/07,15:50,0.507,0.765,0.479,0.963,0.694,0.312,0.562,0.524,�k��,3.5,��
2023/11/07,16:00,0.509,0.765,0.478,0.963,0.694,0.312,0.564,0.523,���k��,3.3,��
2023/11/07,16:10,0.509,0.764,0.478,0.963,0.694,0.312,0.563,0.523,�k��,3.5,��
2023/11/07,16:20,0.509,0.764,0.477,0.962,0.695,0.313,0.563,0.524,�k��,3.8,��
2023/11/07,16:30,0.510,0.764,0.478,0.963,0.694,0.311,0.564,0.524,���k��,7.0,��
2023/11/07,16:40,0.509,0.767,0.479,0.964,0.693,0.314,0.563,0.524,���k��,5.4,��
2023/11/07,16:50,0.509,0.768,0.479,0.967,0.695,0.313,0.564,0.526,��,3.9,��
2023/11/07,17:00,0.510,0.768,0.479,0.968,0.695,0.312,0.563,0.525,���k��,4.4,��
2023/11/07,17:10,0.511,0.769,0.480,0.966,0.694,0.314,0.564,0.526,�k�k��,3.5,��
2023/11/07,17:20,0.510,0.769,0.480,0.968,0.697,0.313,0.564,0.525,�k��,3.9,��
2023/11/07,17:30,0.512,0.767,0.482,0.967,0.697,0.314,0.564,0.526,�k��,5.3,��
2023/11/07,17:40,0.511,0.770,0.482,0.969,0.696,0.313,0.564,0.525,�k��,5.5,��
2023/11/07,17:50,0.513,0.770,0.482,0.969,0.698,0.315,0.564,0.526,���k��,5.4,��
2023/11/07,18:00,0.512,0.769,0.481,0.969,0.698,0.313,0.564,0.527,���k��,3.7,��
2023/11/07,18:10,0.514,0.769,0.482,0.968,0.700,0.315,0.565,0.525,�k��,4.1,��
2023/11/07,18:20,0.513,0.770,0.480,0.968,0.697,0.314,0.564,0.525,�k��,3.6,��
2023/11/07,18:30,0.513,0.769,0.482,0.969,0.697,0.314,0.565,0.524,�k��,0.9,��
2023/11/07,18:40,0.514,0.770,0.481,0.969,0.696,0.314,0.566,0.527,�k��,2.3,��
2023/11/07,18:50,0.513,0.771,0.482,0.969,0.698,0.315,0.565,0.526,���k��,8.1,��
2023/11/07,19:00,0.513,0.769,0.480,0.971,0.699,0.314,0.564,0.526,���k��,13.5,��
2023/11/07,19:10,0.514,0.769,0.481,0.971,0.698,0.315,0.565,0.525,�k��,14.9,��
2023/11/07,19:20,0.513,0.770,0.482,0.970,0.698,0.314,0.564,0.527,�k��,12.4,��
2023/11/07,19:30,0.514,0.771,0.481,0.972,0.700,0.312,0.563,0.527,���k��,14.4,��
2023/11/07,19:40,0.515,0.771,0.482,0.971,0.699,0.313,0.562,0.526,���k��,11.6,��
2023/11/07,19:50,0.514,0.772,0.482,0.970,0.699,0.313,0.564,0.528,��,11.9,��
2023/11/07,20:00,0.515,0.772,0.483,0.973,0.698,0.312,0.562,0.526,���k��,10.9,��
2023/11/07,20:10,0.513,0.773,0.483,0.973,0.698,0.312,0.562,0.526,���k��,10.5,��
2023/11/07,20:20,0.514,0.771,0.483,0.973,0.699,0.313,0.563,0.526,���k��,13.0,��
2023/11/07,20:30,0.515,0.773,0.482,0.974,0.699,0.314,0.563,0.527,���k��,12.4,��
2023/11/07,20:40,0.513,0.772,0.484,0.976,0.700,0.312,0.564,0.529,���k��,10.9,��
2023/11/07,20:50,0.515,0.772,0.483,0.974,0.700,0.313,0.562,0.529,���k��,11.6,��
2023/11/07,21:00,0.514,0.772,0.483,0.976,0.699,0.313,0.563,0.529,���k��,11.0,��
2023/11/07,21:10,0.515,0.772,0.483,0.974,0.701,0.314,0.563,0.528,���k��,10.9,��
2023/11/07,21:20,0.514,0.772,0.482,0.976,0.701,0.312,0.563,0.530,���k��,13.8,��
2023/11/07,21:30,0.515,0.772,0.484,0.976,0.701,0.313,0.562,0.529,��,14.4,��
2023/11/07,21:40,0.515,0.775,0.484,0.975,0.700,0.314,0.563,0.530,��,14.4,��
2023/11/07,21:50,0.516,0.773,0.483,0.975,0.700,0.315,0.562,0.530,��,16.3,��
2023/11/07,22:00,0.516,0.772,0.482,0.977,0.701,0.313,0.563,0.531,��,11.0,��
2023/11/07,22:10,0.517,0.774,0.486,0.976,0.701,0.313,0.562,0.529,��,10.0,��
2023/11/07,22:20,0.516,0.775,0.482,0.977,0.703,0.313,0.562,0.529,��,6.9,��
2023/11/07,22:30,0.514,0.773,0.484,0.977,0.701,0.314,0.562,0.530,���k��,7.2,��
2023/11/07,22:40,0.516,0.772,0.485,0.978,0.700,0.315,0.562,0.529,��,6.3,��
2023/11/07,22:50,0.515,0.771,0.484,0.977,0.701,0.313,0.561,0.530,��,4.9,��
2023/11/07,23:00,0.515,0.771,0.485,0.975,0.701,0.314,0.561,0.529,���쐼,5.1,��
2023/11/07,23:10,0.514,0.774,0.483,0.978,0.699,0.315,0.562,0.530,��,5.2,��
2023/11/07,23:20,0.514,0.772,0.483,0.976,0.702,0.315,0.562,0.529,��,4.9,��
2023/11/07,23:30,0.517,0.773,0.482,0.976,0.700,0.315,0.563,0.529,���k��,5.5,��
2023/11/07,23:40,0.515,0.773,0.482,0.977,0.701,0.314,0.563,0.529,���k��,6.4,��
2023/11/07,23:50,0.515,0.772,0.483,0.977,0.699,0.315,0.561,0.530,���k��,8.1,��
